Waarnemingen

Advertentie
Mijn weer
Nevers, Frankrijk (7260): temperatuur & dauwpunt: 14.07.2018 09:00:00 - 20.07.2018 09:00:00 (CEST)Nevers, Frankrijk (7260): temperatuur 5cm: 14.07.2018 09:00:00 - 20.07.2018 09:00:00 (CEST)Nevers, Frankrijk (7260): temperatuur -20cm & temperatuur -100cm: 14.07.2018 09:00:00 - 20.07.2018 09:00:00 (CEST)Nevers, Frankrijk (7260): windsnelheid & windstoten: 14.07.2018 09:00:00 - 20.07.2018 09:00:00 (CEST)Nevers, Frankrijk (7260): windrichting: 14.07.2018 09:00:00 - 20.07.2018 09:00:00 (CEST)Nevers, Frankrijk (7260): luchtdruk: 14.07.2018 09:00:00 - 20.07.2018 09:00:00 (CEST)Nevers, Frankrijk (7260): zicht: 14.07.2018 09:00:00 - 20.07.2018 09:00:00 (CEST)Nevers, Frankrijk (7260): Zonneschijnduur: 14.07.2018 09:00:00 - 20.07.2018 09:00:00 (CEST)Nevers, Frankrijk (7260): neerslag: 14.07.2018 09:00:00 - 20.07.2018 09:00:00 (CEST)
Datum & Tijd tt [°C] td [°C] tt 5cm [°C] tt -20cm [°C] tt -100cm [°C] ff [km/u] ff [kn] fx [km/u] fx [kn] dd ppp [hPa] vv [km] sd [min] rr [mm]
20.07.2018 09:00:00 - - - - - - - - - - - - - -
20.07.2018 08:00:00 17,5 16,5 16,2 22,1 18,2 6 3 10 5 Z 1015,2 20 2 0,0
20.07.2018 07:00:00 17,2 15,7 16,1 22,2 18,2 10 5 22 12 N 1014,6 20 0 3,5
20.07.2018 06:00:00 17,8 15,6 16,7 22,2 18,2 20 11 31 17 NW 1015,9 9 0 1,2
20.07.2018 05:00:00 18,6 14,9 17,4 22,3 18,2 12 6 39 21 NNW 1015,4 20 0 0,0
20.07.2018 04:00:00 19,2 15,1 17,5 22,4 18,2 12 6 25 13 N 1014,7 20 0 0,0
20.07.2018 03:00:00 19,9 16,1 18,4 22,4 18,2 10 6 26 14 NW 1015,0 20 0 0,0
20.07.2018 02:00:00 20,5 15,7 19,5 22,5 18,2 19 10 40 22 NW 1015,1 20 0 0,0
20.07.2018 01:00:00 22,0 13,4 20,4 22,5 18,2 16 9 26 14 NW 1014,9 20 0 0,0
20.07.2018 00:00:00 22,7 13,7 20,5 22,5 18,2 11 6 21 11 WNW 1014,9 20 0 0,0
19.07.2018 23:00:00 23,5 13,1 16,7 22,4 18,2 10 6 17 9 NNO 1014,5 20 0 0,0
19.07.2018 22:00:00 22,8 14,6 17,4 22,4 18,2 3 2 9 5 NNW 1014,3 2,1 0 0,0
19.07.2018 21:00:00 25,7 14,2 21,3 22,3 18,2 4 2 14 7 N 1013,4 20 11 0,0
19.07.2018 20:00:00 29,5 13,7 31,1 22,1 18,2 10 6 18 10 NNW 1012,9 20 60 0,0
19.07.2018 19:00:00 30,5 11,9 31,5 21,9 18,2 9 5 16 9 N 1013,0 20 57 0,0
19.07.2018 18:00:00 30,5 11,9 31,2 21,7 18,2 7 4 20 11 N 1013,7 20 48 0,0
19.07.2018 17:00:00 31,2 11,6 37,3 21,6 18,2 7 4 28 15 NW 1013,8 20 60 0,0
19.07.2018 16:00:00 30,7 11,1 37,1 21,4 18,2 9 5 26 14 WNW 1014,1 20 60 0,0
19.07.2018 15:00:00 30,4 13,2 36,6 21,3 18,2 7 4 23 12 ONO 1014,5 20 60 0,0
19.07.2018 14:00:00 29,4 12,3 33,6 21,2 18,2 10 6 21 11 N 1015,1 20 58 0,0
19.07.2018 13:00:00 28,6 14,1 33,2 21,2 18,2 10 5 24 13 N 1015,7 20 60 0,0
19.07.2018 12:00:00 27,5 15,2 30,8 21,2 18,2 9 5 18 10 WNW 1015,9 20 60 0,0
19.07.2018 11:00:00 25,0 14,8 28,9 21,2 18,2 8 4 12 7 W 1016,2 20 60 0,0
19.07.2018 10:00:00 23,1 15,2 25,7 21,3 18,2 3 2 8 4 WZW 1016,6 20 60 0,0
19.07.2018 09:00:00 20,5 14,4 22,4 21,4 18,2 3 1 5 3 NW 1016,7 20 60 0,0
19.07.2018 08:00:00 17,6 15,6 14,7 21,5 18,2 0 0 0 0 N 1016,8 20 60 0,0
19.07.2018 07:00:00 12,7 12,4 9,6 21,6 18,2 0 0 0 0 N 1016,9 18 27 0,0
19.07.2018 06:00:00 11,8 11,3 9,3 21,7 18,2 2 1 4 2 Z 1017,1 18 0 0,0
19.07.2018 05:00:00 12,2 11,6 9,5 21,9 18,2 0 0 3 1 N 1017,1 17 0 0,0
19.07.2018 04:00:00 12,5 11,7 10,0 21,9 18,2 0 0 2 1 N 1016,9 20 0 0,0
19.07.2018 03:00:00 13,1 12,3 10,0 22,0 18,2 0 0 3 1 N 1017,0 20 0 0,0
19.07.2018 02:00:00 13,6 11,5 10,7 22,1 18,2 0 0 3 1 N 1017,3 20 0 0,0
19.07.2018 01:00:00 14,5 12,0 11,4 22,1 18,2 0 0 0 0 N 1017,2 20 0 0,0
19.07.2018 00:00:00 15,6 12,3 12,6 22,1 18,2 0 0 2 1 N 1017,1 20 0 0,0
18.07.2018 23:00:00 16,9 12,6 13,4 22,2 18,2 0 0 4 2 N 1016,6 20 0 0,0
18.07.2018 22:00:00 19,6 12,8 16,1 22,1 18,2 2 1 4 2 W 1015,9 20 3 0,0
18.07.2018 21:00:00 25,8 11,9 23,6 21,9 18,1 4 2 13 7 N 1015,1 20 60 0,0
18.07.2018 20:00:00 27,3 10,1 29,4 21,8 18,2 10 5 22 12 NW 1015,0 20 60 0,0
18.07.2018 19:00:00 28,1 8,4 32,7 21,7 18,2 10 5 21 12 N 1014,9 20 60 0,0
18.07.2018 18:00:00 28,6 8,8 31,7 21,5 18,1 8 5 21 12 N 1014,9 20 57 0,0
18.07.2018 17:00:00 28,2 9,5 35,5 21,4 18,1 10 5 22 12 N 1015,3 20 60 0,0
18.07.2018 16:00:00 28,0 11,5 27,7 21,3 18,1 6 3 21 12 N 1015,7 20 46 0,0
18.07.2018 15:00:00 26,6 10,3 27,0 21,2 18,1 5 3 21 11 N 1016,1 20 43 0,0
18.07.2018 14:00:00 25,5 10,9 27,0 21,1 18,1 7 4 14 8 N 1016,7 20 14 0,0
18.07.2018 13:00:00 26,2 11,9 29,9 21,0 18,1 5 3 16 9 NNW 1017,2 20 57 0,0
18.07.2018 12:00:00 25,3 12,8 30,5 21,0 18,1 8 5 18 10 WNW 1017,5 20 60 0,0
18.07.2018 11:00:00 24,2 14,3 28,3 21,1 18,1 0 0 9 5 N 1017,9 20 58 0,0
18.07.2018 10:00:00 22,3 15,4 25,3 21,2 18,1 3 1 8 4 NNW 1018,3 20 60 0,0
18.07.2018 09:00:00 20,3 14,9 20,0 21,3 18,1 0 0 4 2 N 1018,3 20 60 0,0
18.07.2018 08:00:00 15,3 13,5 12,9 21,4 18,1 0 0 3 2 N 1018,6 20 60 0,0
18.07.2018 07:00:00 12,0 11,4 9,5 21,6 18,1 2 1 4 2 NW 1018,8 20 21 0,0
18.07.2018 06:00:00 11,3 10,7 7,9 21,7 18,1 3 1 5 3 NW 1018,7 20 0 0,0
18.07.2018 05:00:00 10,6 9,7 7,7 21,8 18,1 0 0 3 1 N 1018,8 20 0 0,0
18.07.2018 04:00:00 11,5 10,6 8,3 21,9 18,1 0 0 4 2 N 1018,9 20 0 0,0
18.07.2018 03:00:00 11,8 10,7 8,6 22,0 18,1 0 0 2 1 N 1018,9 20 0 0,0
18.07.2018 02:00:00 12,8 11,0 10,2 22,1 18,1 0 0 6 4 N 1019,2 20 0 0,0
18.07.2018 01:00:00 13,8 11,7 10,2 22,2 18,1 0 0 3 2 N 1019,3 20 0 0,0
18.07.2018 00:00:00 14,7 11,5 11,1 22,2 18,1 0 0 0 0 N 1019,3 20 0 0,0
17.07.2018 23:00:00 16,0 11,8 12,4 22,2 18,1 0 0 6 4 N 1018,9 20 0 0,0
17.07.2018 22:00:00 19,3 11,1 14,9 22,2 18,1 0 0 12 7 N 1018,3 2,6 9 0,0
17.07.2018 21:00:00 23,8 9,4 21,8 22,1 18,1 9 5 22 12 W 1017,7 20 60 0,0
17.07.2018 20:00:00 24,7 10,2 24,3 22,1 18,1 13 7 25 13 W 1017,4 20 54 0,0
17.07.2018 19:00:00 25,8 10,4 27,8 22,0 18,1 16 9 32 17 WNW 1017,3 20 60 0,0
17.07.2018 18:00:00 26,1 9,4 27,5 21,9 18,1 18 10 33 18 W 1017,6 20 58 0,0
17.07.2018 17:00:00 25,3 11,1 25,7 21,8 18,1 16 9 32 17 WZW 1017,9 20 28 0,0
17.07.2018 16:00:00 25,4 12,3 26,5 21,7 18,1 20 11 32 18 W 1018,1 20 43 0,0
17.07.2018 15:00:00 25,1 13,6 24,9 21,7 18,1 21 12 36 19 W 1018,3 20 43 0,0
17.07.2018 14:00:00 24,7 14,2 25,2 21,7 18,1 19 10 34 19 W 1018,6 20 44 0,0
17.07.2018 13:00:00 23,6 14,0 24,0 21,7 18,1 18 10 30 16 W 1019,1 20 34 0,0
17.07.2018 12:00:00 22,6 15,9 23,3 21,8 18,1 18 10 31 17 WZW 1019,1 20 37 0,0
17.07.2018 11:00:00 21,3 15,6 20,2 21,8 18,1 17 9 27 15 W 1019,1 20 22 0,0
17.07.2018 10:00:00 18,9 15,8 18,6 21,9 18,1 16 9 33 18 W 1019,1 20 0 0,0
17.07.2018 09:00:00 18,1 15,5 18,3 22,0 18,1 16 9 29 16 W 1018,9 19 3 0,0
17.07.2018 08:00:00 17,8 15,2 17,8 22,1 18,0 20 11 33 18 WZW 1018,6 17 40 0,0
17.07.2018 07:00:00 17,4 14,9 15,3 22,2 18,1 6 3 21 11 ZW 1018,2 20 12 0,0
17.07.2018 06:00:00 16,9 14,2 15,1 22,3 18,1 6 3 15 8 ZW 1017,7 20 0 0,0
17.07.2018 05:00:00 17,7 14,0 15,3 22,4 18,1 7 4 16 8 WZW 1017,3 20 0 0,0
17.07.2018 04:00:00 18,4 13,7 15,7 22,5 18,1 5 3 23 12 NNW 1016,9 20 0 0,0
17.07.2018 03:00:00 19,8 14,8 13,8 22,6 18,0 10 6 18 10 W 1016,3 20 0 0,0
17.07.2018 02:00:00 17,3 15,3 13,7 22,6 18,0 0 0 8 4 N 1016,2 20 0 0,0
17.07.2018 01:00:00 17,9 14,4 14,2 22,6 18,0 0 0 13 7 N 1015,9 20 0 0,0
17.07.2018 00:00:00 17,2 15,2 15,2 22,7 18,1 0 0 6 3 N 1015,5 20 0 0,0
16.07.2018 23:00:00 18,6 15,5 16,4 22,6 18,0 0 0 5 3 N 1015,2 20 0 0,0
16.07.2018 22:00:00 20,9 15,0 17,9 22,6 18,0 0 0 18 10 N 1014,4 2,7 7 0,0
16.07.2018 21:00:00 25,3 15,3 23,8 22,5 18,0 7 4 19 10 N 1013,1 20 42 0,0
16.07.2018 20:00:00 26,3 16,5 27,6 22,4 18,0 12 6 18 10 ZZW 1012,2 20 52 0,0
16.07.2018 19:00:00 26,6 17,4 19,8 22,3 18,0 11 6 25 14 ZZW 1011,7 20 34 0,0
16.07.2018 18:00:00 26,3 16,5 22,2 22,1 18,0 11 6 27 15 W 1011,7 20 34 0,2
16.07.2018 17:00:00 28,9 15,1 33,0 22,0 18,0 6 3 21 11 W 1011,3 20 60 0,0
16.07.2018 16:00:00 26,3 17,1 18,9 21,9 18,0 6 3 27 14 NNW 1011,8 20 23 1,6
16.07.2018 15:00:00 21,1 15,9 17,9 21,7 18,0 30 16 62 34 W 1012,2 16 18 1,8
16.07.2018 14:00:00 29,2 13,4 33,1 21,7 18,0 10 6 19 11 NW 1011,4 20 51 0,0
16.07.2018 13:00:00 28,8 15,0 33,3 21,6 18,0 6 3 17 9 W 1011,8 20 60 0,0
16.07.2018 12:00:00 27,2 14,9 30,5 21,6 18,0 5 3 16 9 WNW 1012,0 20 55 0,0
16.07.2018 11:00:00 25,3 15,9 27,8 21,7 18,0 3 2 14 7 NW 1012,5 20 44 0,0
16.07.2018 10:00:00 23,5 15,8 25,1 21,8 18,0 7 4 13 7 ZO 1012,6 20 60 0,0
16.07.2018 09:00:00 20,6 14,9 19,5 21,9 18,0 7 4 15 8 O 1012,6 20 60 0,0
16.07.2018 08:00:00 18,3 13,8 15,1 22,0 18,0 10 5 16 9 OZO 1013,0 20 46 0,0
16.07.2018 07:00:00 13,9 12,1 10,2 22,1 18,0 0 0 4 2 N 1013,4 20 24 0,0
16.07.2018 06:00:00 13,6 12,2 10,3 22,2 18,0 0 0 4 2 N 1013,7 20 0 0,0
16.07.2018 05:00:00 14,7 12,2 11,5 22,3 18,0 3 2 10 5 ONO 1013,6 20 0 0,0
16.07.2018 04:00:00 15,4 12,7 11,9 22,4 18,0 0 0 8 5 N 1014,1 20 0 0,0
16.07.2018 03:00:00 17,0 12,9 13,0 22,4 18,0 3 1 10 5 ZO 1014,2 20 0 0,0
16.07.2018 02:00:00 18,7 13,3 15,4 22,4 18,0 5 3 17 9 O 1014,4 20 0 0,0
16.07.2018 01:00:00 20,1 14,2 18,9 22,5 18,0 11 6 22 12 OZO 1014,5 20 0 0,0
16.07.2018 00:00:00 21,3 15,4 19,9 22,5 18,0 11 6 26 14 OZO 1014,5 20 0 0,0
15.07.2018 23:00:00 22,5 14,6 17,4 22,4 18,0 13 7 18 10 O 1014,3 20 0 0,0
15.07.2018 22:00:00 22,9 14,5 20,2 22,4 18,0 8 4 25 14 OZO 1013,5 20 0 0,0
15.07.2018 21:00:00 26,2 14,6 25,0 22,3 18,0 14 8 21 12 OZO 1012,9 20 58 0,0
15.07.2018 20:00:00 29,1 12,9 31,1 22,2 17,9 9 5 16 8 N 1012,3 20 60 0,0
15.07.2018 19:00:00 29,8 10,4 32,8 22,1 18,0 9 5 16 9 NW 1012,2 20 60 0,0
15.07.2018 18:00:00 30,3 9,8 34,3 22,1 18,0 6 4 18 10 W 1012,2 20 60 0,0
15.07.2018 17:00:00 29,1 12,1 24,6 21,9 17,9 13 7 27 15 ZZW 1012,6 20 42 0,0
15.07.2018 16:00:00 27,2 2,3 22,2 21,8 18,0 10 5 51 28 ZZO 1013,3 20 0 0,0
15.07.2018 15:00:00 28,9 13,6 29,9 21,7 18,0 15 8 31 17 NW 1013,1 20 45 0,0
15.07.2018 14:00:00 28,5 14,0 28,8 21,6 17,9 5 3 16 9 NW 1013,6 20 13 0,0
15.07.2018 13:00:00 28,1 12,8 29,0 21,5 17,9 5 3 13 7 NW 1014,0 20 23 0,0
15.07.2018 12:00:00 28,8 15,0 34,2 21,6 18,0 4 2 12 6 WNW 1014,4 20 60 0,0
15.07.2018 11:00:00 26,7 15,7 30,3 21,6 18,0 5 3 10 6 Z 1014,8 20 55 0,0
15.07.2018 10:00:00 24,2 16,2 26,5 21,6 17,9 6 4 11 6 OZO 1015,0 20 60 0,0
15.07.2018 09:00:00 21,5 14,9 23,7 21,7 17,9 8 4 12 7 OZO 1015,1 20 60 0,0
15.07.2018 08:00:00 18,2 16,2 15,7 21,8 17,9 3 1 5 3 N 1015,5 20 60 0,0
15.07.2018 07:00:00 13,9 13,6 11,1 22,0 17,9 0 0 2 1 N 1015,5 12 12 0,0
15.07.2018 06:00:00 13,8 13,5 10,7 22,1 17,9 0 0 2 1 N 1015,6 7 0 0,0
15.07.2018 05:00:00 14,0 13,2 11,5 22,2 18,0 0 0 5 3 N 1015,5 12 0 0,0
15.07.2018 04:00:00 14,5 13,4 12,6 22,2 18,0 2 1 4 2 ZZO 1015,8 11 0 0,0
15.07.2018 03:00:00 15,2 14,1 12,8 22,3 17,9 0 0 2 1 N 1015,9 14 0 0,0
15.07.2018 02:00:00 15,7 14,4 13,1 22,3 17,9 0 0 5 3 N 1016,2 12 0 0,0
15.07.2018 01:00:00 16,5 14,5 13,7 22,3 17,9 0 0 2 1 N 1016,3 2,4 0 0,0
15.07.2018 00:00:00 17,7 15,1 15,0 22,3 17,9 0 0 5 3 N 1016,2 20 0 0,0
14.07.2018 23:00:00 18,9 15,4 16,2 22,3 18,0 2 1 4 2 ZW 1016,2 20 0 0,0
14.07.2018 22:00:00 22,2 15,3 18,8 22,2 17,9 0 0 5 3 N 1015,7 4,4 0 0,0
14.07.2018 21:00:00 26,8 15,8 25,4 22,1 17,9 4 2 8 4 NNW 1015,1 20 46 0,0
14.07.2018 20:00:00 28,7 13,8 30,0 21,9 17,9 5 3 17 9 N 1014,9 20 56 0,0
14.07.2018 19:00:00 29,4 14,0 30,4 21,8 17,9 10 5 16 9 NNO 1015,0 20 44 0,0
14.07.2018 18:00:00 30,0 13,3 30,7 21,6 17,9 5 3 18 10 NNO 1015,4 20 36 0,0
14.07.2018 17:00:00 30,5 12,4 34,5 21,4 17,9 7 4 17 9 W 1015,6 20 60 0,0
14.07.2018 16:00:00 29,5 12,0 29,8 21,4 17,9 9 5 20 11 W 1016,0 20 11 0,0
14.07.2018 15:00:00 29,5 11,5 32,9 21,2 17,9 11 6 23 13 N 1016,4 20 41 0,0
14.07.2018 14:00:00 29,2 11,3 32,6 21,1 17,9 9 5 19 10 NNO 1016,7 20 53 0,0
14.07.2018 13:00:00 28,8 13,1 32,2 21,1 17,9 5 3 17 9 WNW 1016,9 20 60 0,0
14.07.2018 12:00:00 26,5 13,6 27,4 21,0 17,9 4 2 9 5 NW 1017,5 20 25 0,0
14.07.2018 11:00:00 25,5 14,0 26,8 21,1 17,9 0 0 6 4 N 1017,7 20 41 0,0
14.07.2018 10:00:00 23,2 14,7 25,2 21,2 17,9 2 1 6 3 NNO 1018,1 20 45 0,0
14.07.2018 09:00:00 20,7 15,5 20,5 21,3 17,9 0 0 4 2 N 1018,5 20 44 0,0

tt = temperatuur
td = dauwpunt
tt 5cm = temperatuur 5cm
tt -20cm = temperatuur -20cm
tt -100cm = temperatuur -100cm
ff = windsnelheid
fx = windstoten
dd = windrichting
ppp = luchtdruk
vv = zicht
sd = Zonneschijnduur
rr = neerslag

Weerstations in de omgeving